CAPE
158 431 286 87 215 267 527 836 832 629 545 440 204 114 68 36 77 121 14 34 52 56 74 97 90 90 83 58 12 0 0 0 0 0 0 0 0 0 0 0 6 0 17
365 475 280 190 188 215 278 477 610 521 361 220 139 94 44 109 79 72 43 147 181 189 195 213 186 191 152 95 50 32 0 0 0 0 0 0 0 0 0 0 0 0 4
282 616 238 127 147 186 216 206 226 207 122 118 89 63 124 133 141 100 146 266 270 271 301 301 296 248 216 176 137 127 67 10 0 0 10 47 0 0 0 0 0 0 0
441 508 129 79 108 195 116 162 237 147 94 96 142 146 143 160 145 137 196 252 301 357 340 303 246 171 101 57 19 0 0 0 83 248 371 165 11 0 0 0 0 0 0
320 485 415 139 73 194 280 207 203 175 114 175 230 251 228 223 168 257 367 367 347 313 266 199 118 64 27 1 0 6 7 27 114 356 578 238 223 0 0 0 0 0 0
222 530 294 159 113 140 238 199 167 157 215 242 269 300 320 283 336 396 429 399 299 205 157 102 64 57 47 50 68 96 102 102 163 494 687 361 470 0 0 0 0 0 0
306 393 265 239 157 122 213 201 164 277 309 312 363 373 429 423 459 477 454 380 244 160 106 66 33 11 31 45 50 97 103 51 287 499 604 595 626 98 25 9 0 0 0
431 180 250 322 182 171 223 173 241 339 388 436 461 495 529 454 470 475 415 329 253 177 113 94 65 56 56 76 101 152 147 137 331 655 562 553 392 137 104 176 105 47 0
450 323 153 109 250 336 223 174 315 329 436 393 426 486 413 391 397 369 326 240 170 136 117 102 123 151 172 191 188 197 224 235 597 995 925 874 384 200 123 275 258 155 46
306 503 182 94 63 56 95 395 421 431 513 431 497 487 346 278 257 210 114 40 126 118 122 160 186 210 243 170 101 76 51 117 468 1441 1054 1192 591 406 299 270 518 706 277
62 365 205 71 49 11 2 211 434 546 590 537 447 418 188 143 165 391 81 250 87 57 115 152 275 423 481 470 448 699 748 1001 1136 1118 1033 1144 854 586 589 585 556 808 707
27 175 214 87 66 62 109 259 129 151 178 163 139 322 236 157 204 194 372 190 0 0 44 207 431 656 716 1137 1363 1162 1685 1596 601 800 1366 1275 1056 864 982 1171 977 871 1044
9 86 230 221 202 75 108 379 164 143 135 207 313 594 133 222 163 25 17 241 179 68 733 594 1352 1461 1559 1064 679 932 715 620 662 634 1382 1379 1225 958 1147 1537 1719 1671 1416
16 63 181 360 569 212 98 322 209 212 268 353 477 690 565 582 273 213 137 125 418 620 787 1082 739 774 986 1025 1046 852 776 640 479 626 981 1291 1051 786 800 998 1207 1406 1624
12 71 145 456 889 635 377 264 279 219 301 328 552 713 442 420 333 344 198 198 184 477 845 835 878 961 1092 1007 976 986 823 876 695 755 734 1151 1086 959 731 559 575 773 1142
26 137 167 543 1167 1040 873 569 354 413 297 412 451 413 587 597 482 363 658 749 449 613 904 1064 1393 1540 1398 1299 1391 1490 1358 1328 1263 1259 1067 1083 1080 1053 830 488 249 292 618
323 359 356 507 1160 1196 1109 961 642 427 304 495 687 737 704 901 896 1000 1133 1285 1480 1646 1677 1594 1488 1517 1685 1412 1517 1451 1388 1383 1465 1400 1415 1316 1397 1164 883 335 145 13 0
710 839 826 747 967 1407 1151 1010 608 438 371 767 1053 945 1185 1273 1489 1714 1599 1612 1702 1986 1913 1782 1795 1660 1539 1466 1516 1417 1171 1213 1174 1558 1423 1276 1046 868 739 721 155 38 20
778 1029 1283 1153 981 1443 1302 997 775 639 602 895 1251 1235 1508 1421 1380 1641 1752 1904 2252 2239 2071 1977 1798 1765 1604 1451 1270 1188 1009 1015 1127 1029 920 856 697 429 113 335 244 209 203
947 1189 1453 1601 1568 1816 1492 1136 850 624 743 865 1313 1418 1739 2076 1997 2078 2312 2257 2593 2218 1857 1840 2010 1891 1622 1322 1015 725 777 779 522 317 361 173 88 21 8 5 72 188 424
1500 1517 1630 1860 1915 1974 1793 1340 932 834 965 702 1121 1735 2436 2767 2896 2804 2657 2439 2331 2012 2126 2182 1808 1310 1132 933 474 100 0 341 418 228 28 2 0 0 0 11 19 389 603
1938 2275 2299 2136 2486 2393 2163 1927 1425 1042 1159 1528 2122 2574 2805 3059 2980 2810 2615 2465 2236 1949 1767 1317 1201 915 610 252 17 0 0 0 362 3 0 0 0 0 0 1 178 311 330
1937 2571 2579 2806 2725 2506 2147 2207 1895 1358 1402 1786 2429 2877 2865 2756 2511 2460 2373 2117 2043 1672 1101 614 230 31 0 0 3 0 0 0 0 0 1 0 0 0 0 0 197 133 90
1849 2190 2672 2975 3186 3093 2806 2044 1838 1440 1662 2375 2421 2373 2201 2190 2011 1918 1835 1525 1000 393 171 0 0 0 0 0 0 0 0 0 0 0 0 0 0 0 0 0 4 113 10
1812 2261 2423 3123 3351 3264 3200 2433 2209 1949 2042 2115 2181 2462 1962 1636 1393 911 833 493 155 0 0 0 0 0 0 0 0 0 0 0 0 0 0 0 0 0 0 0 0 7 18
851 2316 2792 2958 3405 3401 3440 2768 2729 2432 2277 2222 2484 1979 1647 1250 734 301 125 4 0 0 0 0 0 0 0 0 0 0 0 0 0 0 0 0 0 0 0 0 0 1 14
CIN
-206 -284 -339 -396 -310 -254 -157 -73 -61 -77 -77 -105 -190 -263 -302 -241 -200 -114 -190 -131 -80 -62 -43 -84 -35 -40 -49 -66 -66 -0 -0 -0 -0 -0 -0 -0 -0 -0 -0 -0 -3 -0 -0
-205 -259 -344 -344 -318 -273 -219 -142 -87 -98 -127 -161 -211 -242 -241 -171 -147 -138 -157 -71 -53 -48 -42 -35 -17 -17 -28 -53 -86 -69 -0 -0 -0 -0 -0 -0 -0 -0 -0 -0 -0 -0 -0
-243 -237 -328 -355 -316 -285 -254 -225 -189 -178 -197 -190 -215 -207 -160 -139 -123 -147 -101 -38 -27 -27 -19 -13 -16 -29 -32 -34 -51 -61 -91 -47 -0 -0 -110 -57 -0 -0 -0 -0 -0 -0 -0
-210 -227 -329 -365 -320 -268 -281 -246 -184 -198 -208 -197 -174 -163 -159 -149 -146 -142 -98 -58 -27 -18 -22 -25 -35 -48 -68 -86 -120 -0 -0 -0 -81 -62 -38 -10 -11 -0 -0 -0 -0 -0 -0
-194 -180 -259 -331 -333 -257 -216 -214 -199 -195 -205 -168 -141 -136 -148 -142 -156 -107 -62 -54 -42 -35 -37 -55 -87 -122 -143 -15 -0 -182 -110 -134 -102 -72 -18 -1 -2 -0 -0 -0 -0 -0 -0
-136 -154 -305 -326 -332 -281 -223 -214 -215 -204 -170 -158 -152 -141 -134 -144 -113 -91 -74 -70 -82 -104 -105 -128 -144 -150 -152 -154 -136 -117 -117 -120 -109 -30 -11 -16 -1 -0 -0 -0 -0 -0 -0
-77 -177 -289 -314 -310 -294 -240 -225 -226 -183 -164 -164 -151 -148 -128 -127 -110 -100 -99 -108 -133 -163 -188 -200 -219 -218 -196 -191 -175 -161 -155 -163 -98 -13 -7 -5 -19 -105 -158 -38 -0 -0 -0
-74 -203 -296 -281 -311 -298 -259 -250 -215 -181 -164 -153 -147 -126 -112 -130 -124 -117 -116 -144 -168 -197 -227 -234 -239 -242 -221 -200 -194 -166 -166 -160 -89 -5 -1 -2 -74 -131 -161 -142 -155 -124 -0
-81 -154 -263 -324 -275 -246 -272 -282 -220 -208 -173 -193 -171 -150 -166 -165 -167 -162 -161 -184 -222 -233 -269 -270 -252 -224 -203 -192 -176 -166 -166 -154 -123 -14 -4 -10 -86 -133 -173 -148 -143 -157 -164
-74 -120 -207 -277 -326 -344 -339 -221 -203 -201 -174 -197 -176 -165 -200 -212 -225 -226 -263 -307 -269 -261 -263 -259 -244 -221 -211 -218 -214 -212 -213 -178 -138 -6 -9 -26 -70 -97 -142 -161 -114 -76 -128
-92 -85 -126 -205 -235 -256 -19 -280 -229 -193 -184 -190 -203 -207 -259 -196 -196 -146 -237 -177 -277 -306 -275 -252 -201 -168 -148 -159 -149 -113 -112 -81 -13 -15 -20 -46 -70 -91 -110 -119 -119 -75 -72
-95 -70 -83 -131 -174 -157 -197 -263 -273 -264 -253 -243 -234 -197 -187 -129 -90 -95 -118 -213 -0 -0 -284 -208 -149 -98 -112 -57 -15 -88 -78 -14 -4 -2 -30 -60 -75 -82 -87 -78 -89 -80 -44
-52 -86 -57 -96 -132 -124 -149 -177 -192 -191 -201 -184 -152 -110 -168 -87 -131 -172 -66 -138 -178 -194 -61 -72 -49 -60 -10 -1 -1 -2 -2 -3 -1 -2 -60 -68 -78 -82 -80 -54 -25 -16 -20
-89 -107 -87 -94 -111 -117 -135 -139 -130 -110 -118 -129 -122 -116 -108 -109 -123 -127 -102 -84 -45 -29 -2 -1 -1 -2 -1 -1 -1 -3 -2 -2 -2 -3 -31 -65 -62 -78 -90 -81 -45 -14 -1
-88 -105 -99 -96 -110 -122 -135 -133 -106 -118 -116 -110 -101 -115 -122 -123 -123 -113 -121 -115 -96 -18 -3 -1 -2 -2 -3 -1 -1 -2 -2 -2 -7 -1 -1 -34 -49 -57 -92 -118 -114 -67 -20
-94 -85 -90 -87 -117 -120 -120 -107 -118 -128 -133 -124 -124 -135 -145 -118 -126 -127 -84 -66 -74 -43 -8 -1 -0 -2 -1 -2 -2 -3 -5 -1 -0 -1 -1 -2 -33 -48 -72 -105 -136 -125 -55
-63 -68 -92 -104 -121 -151 -144 -144 -137 -123 -140 -133 -115 -132 -146 -130 -113 -87 -37 -12 -1 -0 -0 -1 -3 -1 -1 -8 -3 -2 -3 -2 -4 -2 -0 -0 -11 -46 -39 -79 -124 -129 -0
-83 -79 -85 -93 -116 -171 -165 -176 -153 -131 -136 -106 -87 -108 -117 -93 -66 -37 -18 -1 -1 -0 -1 -0 -1 -9 -0 -1 -0 -1 -1 -1 -0 -2 -1 -0 -1 -2 -4 -49 -119 -163 -166
-91 -104 -108 -102 -89 -156 -169 -169 -153 -132 -153 -103 -76 -68 -69 -80 -63 -57 -9 -1 -0 -0 -0 -1 -1 -2 -1 -1 -1 -2 -0 -2 -0 -1 -1 -3 -0 -20 -90 -50 -87 -76 -71
-108 -123 -127 -114 -88 -131 -157 -163 -138 -134 -147 -111 -84 -61 -45 -30 -19 -16 -2 -2 -1 -0 -0 -4 -3 -1 -6 -3 -5 -14 -8 -7 -13 -29 -38 -99 -178 -291 -75 -224 -112 -85 -48
-96 -125 -162 -141 -138 -128 -143 -156 -131 -132 -130 -127 -91 -50 -16 -9 -0 -1 -0 -0 -1 -0 -0 -0 -0 -1 -2 -1 -61 -141 -0 -65 -47 -72 -263 -0 -0 -0 -0 -2 -263 -70 -34
-80 -135 -149 -168 -160 -155 -132 -121 -104 -92 -90 -81 -31 -24 -14 -1 -3 -2 -0 -1 -6 -2 -1 -17 -10 -18 -18 -123 -309 -0 -0 -0 -91 -2 -0 -0 -0 -0 -0 -1 -120 -82 -58
-61 -114 -146 -164 -179 -202 -135 -124 -112 -91 -85 -82 -33 -21 -21 -24 -45 -24 -22 -8 -8 -5 -30 -93 -199 -112 -85 -0 -16 -0 -0 -0 -0 -0 -1 -0 -0 -0 -0 -0 -132 -172 -199
-62 -93 -134 -148 -143 -175 -175 -135 -150 -138 -126 -84 -59 -55 -99 -81 -77 -70 -39 -43 -95 -178 -279 -0 -0 -0 -0 -0 -0 -0 -0 -0 -0 -0 -0 -0 -0 -0 -0 -0 -5 -239 -101
-35 -87 -127 -128 -129 -141 -183 -145 -170 -172 -134 -118 -69 -82 -115 -133 -143 -224 -189 -246 -342 -0 -0 -0 -0 -0 -0 -0 -0 -0 -0 -0 -0 -0 -0 -0 -0 -0 -0 -0 -0 -0 -140
-6 -22 -61 -124 -130 -138 -146 -199 -154 -196 -126 -95 -67 -153 -145 -195 -296 -404 -436 -152 -0 -0 -0 -0 -0 -0 -0 -0 -0 -0 -0 -0 -0 -0 -0 -0 -0 -0 -0 -0 -0 -0 -3
Wind_Speed
14 18 18 18 19 19 19 20 20 20 21 21 22 23 24 25 25 26 26 27 27 27 28 28 28 28 28 27 27 27 27 26 25 25 26 26 25 23 23 23 7 23 22
15 17 16 17 18 18 18 19 19 20 21 21 22 23 24 25 26 26 26 27 27 27 27 27 27 26 26 26 26 26 27 27 26 24 24 26 26 24 23 22 22 22 22
16 16 17 17 18 19 19 19 20 20 20 21 22 22 23 24 25 25 26 26 26 27 27 27 26 26 25 25 25 24 25 24 23 22 19 15 25 24 23 23 23 23 22
17 17 16 17 18 18 18 19 19 19 19 19 20 21 23 23 24 24 25 25 25 25 26 25 25 25 24 24 23 23 22 19 18 14 15 18 22 23 23 22 23 23 21
18 17 16 16 17 17 17 17 17 17 18 18 19 21 22 22 23 23 23 24 24 24 24 24 24 23 23 22 22 21 17 13 10 10 12 22 21 22 21 20 20 20 21
17 16 18 17 17 16 16 16 16 16 17 18 19 20 21 21 21 21 22 22 22 22 22 22 22 22 22 21 19 17 12 9 8 8 15 19 19 21 20 19 19 20 20
14 16 18 18 18 17 17 16 16 17 17 18 19 19 19 19 20 20 20 21 20 21 20 20 19 18 18 17 15 13 11 6 6 6 20 20 19 19 18 18 18 17 17
13 17 17 18 17 17 17 17 17 17 17 17 17 18 18 18 18 18 18 18 18 18 18 17 17 15 14 14 13 11 11 7 6 7 16 17 17 18 16 14 14 13 14
14 15 17 16 16 16 16 16 16 16 16 16 16 17 17 17 17 16 16 16 16 15 15 15 14 14 13 12 11 10 9 7 8 9 10 19 16 15 13 12 12 11 10
14 14 16 17 16 16 15 15 15 16 16 16 16 16 16 15 14 14 14 13 13 12 12 12 11 11 10 9 9 9 7 5 6 7 10 15 16 13 10 8 7 7 7
16 14 16 16 15 15 14 15 16 16 15 15 15 14 13 13 12 12 12 12 10 10 9 8 8 7 6 5 6 7 6 6 5 7 17 13 14 12 9 6 4 4 4
16 15 15 17 16 17 14 14 16 15 15 13 12 12 12 12 11 11 11 10 8 8 7 7 7 6 5 5 5 5 6 3 3 7 14 13 14 13 9 6 3 2 1
15 13 13 13 13 16 14 13 14 13 12 11 11 11 13 11 11 10 10 9 9 8 7 7 6 6 5 8 4 6 5 4 3 10 13 14 15 15 11 8 5 3 2
12 11 10 10 12 16 12 12 12 11 11 11 11 11 13 12 11 11 9 9 10 9 8 8 6 8 6 4 3 4 6 9 6 17 16 14 15 15 13 11 10 8 6
7 8 9 8 10 13 11 11 10 10 10 10 10 11 13 11 10 10 9 8 7 7 8 7 6 8 6 3 3 12 10 13 8 11 11 13 15 15 15 14 14 13 13
7 7 7 8 8 11 11 7 8 8 7 8 10 10 12 12 10 9 8 7 7 6 5 4 5 5 3 3 4 16 8 5 8 13 11 16 12 14 16 18 19 19 19
10 8 5 8 9 9 9 7 7 6 7 6 7 8 9 9 9 9 7 6 6 5 5 4 3 4 5 18 11 10 12 11 16 18 17 16 17 14 16 18 19 19 19
11 9 8 6 8 8 8 7 5 3 3 3 4 5 7 7 6 5 5 4 4 7 3 3 13 16 15 18 15 14 17 18 16 19 17 21 24 23 19 15 18 19 18
12 11 8 6 7 7 6 4 3 1 2 3 4 4 4 3 3 3 3 3 10 9 7 16 18 20 19 22 22 21 18 16 17 18 19 20 16 22 24 20 19 16 14
12 12 9 7 5 6 4 3 2 2 2 3 5 6 7 6 7 7 7 16 16 11 16 20 21 22 21 22 23 26 16 16 22 18 19 18 21 26 23 25 27 26 19
11 12 13 10 8 7 6 5 4 4 4 4 5 7 9 10 11 10 13 14 15 17 17 18 18 19 20 20 21 18 21 13 14 18 16 20 22 25 22 25 26 29 31
13 14 13 14 11 11 8 6 5 5 5 5 6 8 8 10 11 11 13 13 15 17 16 19 20 21 22 22 25 28 22 20 13 17 19 19 25 25 25 27 27 30 30
16 15 15 15 14 14 11 9 9 8 8 7 7 8 10 10 10 11 12 13 15 15 15 17 19 20 22 21 21 24 25 23 27 17 17 21 23 28 26 28 26 28 27
15 16 16 16 16 15 14 12 11 10 10 9 8 6 7 7 7 10 11 12 14 15 16 16 19 19 21 21 21 20 20 20 22 20 23 20 27 28 29 29 26 25 26
14 15 16 17 17 16 16 16 13 12 11 9 7 6 6 6 7 9 10 11 13 13 16 16 17 19 18 20 22 24 23 21 18 23 21 28 27 29 31 31 27 25 25
16 14 15 15 17 17 17 18 16 15 13 10 9 8 7 6 7 8 9 11 12 14 15 15 16 18 19 20 20 20 22 24 24 25 26 28 30 29 31 26 28 28 26
Wind_Direction
77 88 81 79 77 76 74 74 72 74 78 72 68 68 69 69 71 68 66 65 65 64 63 62 61 58 55 52 50 48 49 45 45 49 49 46 39 31 21 16 318 19 21
83 88 80 80 78 76 76 78 76 79 81 76 73 74 73 72 72 71 70 69 68 67 65 64 62 58 54 53 52 48 47 50 57 63 62 56 43 38 25 13 10 20 15
88 88 87 82 83 83 82 82 82 83 80 78 76 75 75 73 73 73 72 69 68 68 65 64 64 61 58 58 54 54 43 55 65 73 81 104 36 41 35 27 24 24 25
91 93 87 86 86 85 83 83 82 79 78 76 76 76 76 76 75 73 70 68 67 67 65 65 64 61 59 61 60 57 60 77 85 104 94 54 41 48 42 41 38 37 36
95 91 86 87 87 86 83 82 81 78 78 78 78 79 79 77 75 72 68 68 68 68 68 68 67 66 66 62 58 62 87 110 133 131 115 26 43 45 45 45 42 45 40
95 88 96 93 91 88 85 84 81 81 81 81 84 84 82 79 76 73 73 76 78 76 78 75 76 75 71 72 75 87 114 140 141 143 85 51 51 46 50 47 41 36 35
88 88 99 97 97 96 94 90 88 88 87 88 89 88 86 83 83 84 85 84 84 80 82 80 84 88 85 89 95 109 118 171 162 138 62 62 59 54 53 51 49 45 44
84 98 97 103 100 99 98 96 95 94 93 92 91 91 91 92 91 91 92 89 87 85 82 83 84 92 94 95 95 109 104 124 155 145 73 63 64 58 63 63 61 63 58
91 97 102 103 102 102 101 100 98 95 94 93 95 100 102 101 98 96 99 96 90 90 81 83 81 84 89 91 91 95 97 122 115 111 87 52 60 57 65 67 65 72 70
101 98 108 109 107 106 101 101 101 102 101 99 104 107 106 103 99 102 104 107 92 90 87 80 81 79 80 89 94 86 96 139 135 119 90 56 54 55 62 79 86 79 74
116 107 115 115 112 115 104 107 109 109 107 106 105 107 108 107 100 103 99 82 88 88 91 97 92 95 99 112 127 102 111 133 154 113 38 63 48 50 61 69 76 99 87
125 118 119 123 119 124 106 107 120 115 117 113 106 101 121 121 98 94 75 85 101 109 125 134 121 123 134 130 130 131 108 128 134 74 44 49 34 32 39 40 50 46 43
125 120 119 119 115 125 115 111 119 112 113 111 111 112 130 111 110 115 114 105 100 126 116 121 123 112 123 66 112 71 57 58 62 37 33 28 22 20 21 20 15 360 306
122 122 117 117 122 134 114 115 116 115 115 112 119 119 136 130 122 135 113 108 77 85 97 78 125 65 61 83 69 40 27 22 18 6 7 17 15 12 12 11 9 3 348
112 119 126 122 125 132 123 118 114 116 109 110 105 122 138 133 120 115 111 112 106 98 76 75 73 49 55 73 50 21 14 6 12 8 5 6 6 7 7 4 359 355 352
116 120 126 128 127 133 134 108 115 106 92 105 114 123 139 140 126 132 107 110 102 88 107 119 78 48 39 28 23 8 20 13 10 4 4 358 3 2 358 358 355 353 352
131 126 135 138 133 136 135 129 120 102 113 102 107 114 127 129 126 138 126 114 110 99 59 47 41 33 21 2 5 3 3 4 360 355 355 355 360 357 360 356 357 356 352
139 143 146 151 147 146 140 137 130 95 89 69 73 84 125 123 118 85 117 110 87 33 47 30 4 358 358 356 355 354 351 352 354 352 353 351 349 350 355 5 360 357 355
161 156 163 167 163 158 155 140 141 63 9 11 8 27 45 85 75 53 44 36 1 8 7 353 349 349 350 348 347 348 350 351 353 353 353 354 360 356 353 1 1 1 5
178 172 178 190 197 175 170 183 201 270 298 327 336 341 347 350 348 350 351 334 340 356 351 346 346 345 347 346 343 338 347 354 350 356 358 1 357 351 356 354 354 357 7
196 194 187 195 202 199 197 196 209 232 279 293 314 328 330 333 333 340 339 343 343 344 349 351 353 349 350 355 354 358 350 4 14 6 12 2 0 355 1 356 355 352 341
211 209 207 203 214 214 219 232 247 260 269 294 305 316 324 331 339 341 340 341 341 343 348 349 349 349 343 349 346 336 348 355 32 15 9 6 356 355 353 351 351 345 343
227 222 221 219 219 224 232 249 270 274 283 282 297 311 316 325 336 342 343 342 341 345 356 355 353 353 345 351 356 344 339 339 339 10 13 3 1 348 349 343 350 349 354
228 231 230 225 224 232 234 243 241 250 256 270 276 292 307 319 333 339 339 340 345 345 348 1 356 354 349 348 350 356 355 351 349 352 351 360 350 343 336 337 339 352 353
231 233 232 230 230 236 237 241 241 247 257 271 262 282 299 305 321 331 336 339 340 346 345 354 355 353 359 348 340 338 341 348 354 345 351 340 345 340 324 327 336 340 349
240 238 238 231 228 231 238 233 240 240 251 249 255 272 278 295 311 328 336 337 336 337 342 350 352 357 350 344 345 346 341 338 339 343 341 337 334 338 331 336 333 333 342